Flag for France Weather past 2 weeks in Reims, France

57 °F

Mostly cloudy.

Feels Like: 53 °F
Forecast: 49 / 59 °F
Wind: 18 mph from Southwest

Location: Chalons-Vatry

Current Time: Oct 7, 2015 at 1:05:46 PM

Latest Report: Oct 7, 2015 at 12:30 PM

Visibility: N/A

Pressure: 29.95 "Hg

Humidity: 77%

Dew point: 50 °F

Location of ReimsLocation

Historic Weather in Reims — Graph


Reims temperature yesterday

Maximum temperature yesterday: 68 °F (at 3:00 PM)
Minimum temperature yesterday: 59 °F (at 1:00 AM)
Average temperature yesterday: 62 °F

Past Weeks' High & Low Weather Summary

High70 °F (Oct 3, 3:00 PM)100% (Sep 25, 4:00 AM)30.51 "Hg (Sep 25, 4:00 AM)
Low37 °F (Oct 2, 7:30 AM)37% (Sep 30, 4:30 PM)29.59 "Hg (Sep 22, 2:30 PM)
Average55 °F78%30.10 "Hg
* Reported Sep 22 12:00 Noon — Oct 7 12:00 Noon, Reims, Weather by CustomWeather, © 2015

Note: Actual official high and low records may vary slightly from our data, if they occured in-between our weather recording intervals... More about our weather records


Reims weather history for previous 24 hours

Time TempWeatherWind HumidityBarometerVisibility
12:00 PM
Wed, Oct 7
57 °FMostly cloudy.18 mph82%29.95 "HgN/A
11:30 AM55 °FOvercast.15 mph82%29.95 "HgN/A
11:00 AM55 °FOvercast.16 mph88%29.95 "HgN/A
10:30 AM55 °FOvercast.15 mph82%29.92 "HgN/A
10:00 AM54 °FMostly cloudy.18 mph94%29.92 "HgN/A
9:30 AM54 °FOvercast.16 mph94%29.89 "HgN/A
9:00 AM54 °FOvercast.17 mph94%29.89 "HgN/A
8:30 AM54 °FMostly cloudy.17 mph94%29.86 "HgN/A
8:00 AM54 °FLow clouds.20 mph94%29.86 "HgN/A
7:30 AM54 °FLow clouds.17 mph94%29.86 "Hg6 mi
7:00 AM54 °FMostly cloudy.18 mph94%29.83 "HgN/A
6:30 AM54 °FMostly cloudy.16 mph94%29.83 "HgN/A
6:00 AM55 °FOvercast.16 mph88%29.83 "Hg5 mi
5:30 AM55 °FMostly cloudy.18 mph88%29.83 "HgN/A
5:00 AM55 °FMostly cloudy.16 mph88%29.80 "HgN/A
4:30 AM55 °FMostly cloudy.15 mph88%29.80 "HgN/A
4:00 AM55 °FOvercast.18 mph88%29.80 "HgN/A
3:30 AM55 °FPassing clouds.17 mph88%29.77 "HgN/A
3:00 AM57 °FPassing clouds.21 mph88%29.77 "HgN/A
2:30 AM59 °FPartly cloudy.16 mph88%29.77 "HgN/A
2:00 AM57 °FPassing clouds.15 mph94%29.77 "HgN/A
1:30 AM59 °FMostly cloudy.20 mph88%29.74 "HgN/A
1:00 AM59 °FOvercast.21 mph88%29.74 "HgN/A
12:30 AM59 °FPartly cloudy.20 mph88%29.71 "HgN/A
12:00 AM61 °FPassing clouds.20 mph83%29.71 "HgN/A
11:30 PM
Tue, Oct 6
59 °FPassing clouds.16 mph88%29.71 "HgN/A
11:00 PM59 °FPassing clouds.14 mph94%29.71 "HgN/A
10:30 PM59 °FPassing clouds.12 mph88%29.71 "HgN/A
10:00 PM59 °FPassing clouds.13 mph88%29.68 "HgN/A
9:30 PM61 °FPassing clouds.18 mph88%29.68 "HgN/A
9:00 PM61 °FPartly sunny.17 mph88%29.68 "HgN/A
8:30 PM61 °FMostly cloudy.12 mph88%29.68 "HgN/A
8:00 PM63 °FPartly sunny.14 mph88%29.65 "HgN/A
7:30 PM63 °FPartly sunny.14 mph88%29.65 "HgN/A
7:00 PM63 °FBroken clouds.17 mph88%29.65 "HgN/A
6:30 PM63 °FLight rain. Broken clouds.14 mph88%29.62 "HgN/A
6:00 PM66 °FScattered clouds.13 mph83%29.62 "HgN/A
5:30 PM66 °FPassing clouds.13 mph83%29.62 "HgN/A
5:00 PM66 °FPassing clouds.15 mph78%29.62 "HgN/A
4:30 PM64 °FBroken clouds.12 mph83%29.62 "HgN/A
4:00 PM63 °FLight rain. Fog.22 mph83%29.62 "Hg3 mi
3:30 PM68 °FScattered clouds.16 mph73%29.62 "HgN/A
3:00 PM68 °FScattered clouds.15 mph78%29.62 "HgN/A
2:30 PM66 °FPartly sunny.15 mph83%29.62 "HgN/A
2:00 PM66 °FBroken clouds.14 mph83%29.62 "HgN/A
1:30 PM66 °FPartly sunny.18 mph83%29.62 "HgN/A
1:00 PM64 °FPartly sunny.15 mph88%29.62 "HgN/A
Weather by CustomWeather, © 2015

See weather overviewHow to use our weather pages